Weather reports worldwide

Advertisment
Hyeres, France (7667): temperature & dewpoint: 16.07.2019 02:00:00 - 22.07.2019 02:00:00 (CEST)Hyeres, France (7667): temperature 5cm: 16.07.2019 02:00:00 - 22.07.2019 02:00:00 (CEST)Hyeres, France (7667): wind speed & gusts: 16.07.2019 02:00:00 - 22.07.2019 02:00:00 (CEST)Hyeres, France (7667): wind direction: 16.07.2019 02:00:00 - 22.07.2019 02:00:00 (CEST)Hyeres, France (7667): reduced air pressure: 16.07.2019 02:00:00 - 22.07.2019 02:00:00 (CEST)Hyeres, France (7667): visibility: 16.07.2019 02:00:00 - 22.07.2019 02:00:00 (CEST)Hyeres, France (7667): precipitation: 16.07.2019 02:00:00 - 22.07.2019 02:00:00 (CEST)
Date & Time tt [°C] td [°C] tt 5cm [°C] ff [km/h] ff [kn] fx [km/h] fx [kn] dd ppp [hPa] vv [km] rr [mm]
22.07.2019 02:00:00 21,5 16,5 - 8 4 9 5 NNE 1021,2 25 -
22.07.2019 01:00:00 23,0 16,3 19,0 0 0 5 3 N 1020,9 36 0,0
22.07.2019 00:00:00 24,1 16,1 20,2 3 1 10 5 NW 1020,7 42 0,0
21.07.2019 23:00:00 24,9 15,8 21,7 2 1 13 7 NNE 1020,7 47 0,0
21.07.2019 22:00:00 25,7 16,5 23,7 9 5 23 13 WSW 1020,1 54 0,0
21.07.2019 21:00:00 25,8 17,2 24,2 12 6 30 16 SW 1019,7 47 0,0
21.07.2019 20:00:00 26,1 19,7 26,9 20 11 33 18 SW 1019,4 20 0,0
21.07.2019 19:00:00 26,9 19,5 29,8 17 9 36 20 SW 1019,4 24 0,0
21.07.2019 18:00:00 27,1 19,2 31,1 27 14 42 23 SW 1019,2 14 0,0
21.07.2019 17:00:00 27,7 18,7 30,8 29 16 45 24 SW 1019,6 9 0,0
21.07.2019 16:00:00 28,5 19,2 31,3 27 15 42 23 SW 1019,8 8 0,0
21.07.2019 15:00:00 27,4 21,2 33,0 28 15 44 24 SW 1020,0 20 0,0
21.07.2019 14:00:00 27,8 20,6 31,3 28 15 39 21 SW 1020,3 43 0,0
21.07.2019 13:00:00 28,6 20,1 35,1 22 12 30 16 SW 1020,4 47 0,0
21.07.2019 12:00:00 28,3 18,7 35,6 18 10 30 16 SW 1020,3 20 0,0
21.07.2019 11:00:00 28,6 19,2 35,8 13 7 24 13 SW 1020,4 20 0,0
21.07.2019 10:00:00 27,3 18,9 31,7 3 2 14 7 NNW 1020,4 20 0,0
21.07.2019 09:00:00 24,3 16,8 24,8 6 3 16 8 WNW 1020,4 31 0,0
21.07.2019 08:00:00 22,4 16,4 17,9 2 1 10 6 N 1020,2 31 0,0
21.07.2019 07:00:00 19,0 15,7 15,2 4 2 9 5 NNE 1020,4 26 0,0
21.07.2019 06:00:00 17,9 15,3 14,6 5 3 8 4 NNE 1020,0 18 0,0
21.07.2019 05:00:00 19,5 16,0 15,5 4 2 11 6 N 1019,9 25 0,0
21.07.2019 04:00:00 19,6 16,8 15,1 3 2 8 4 NNW 1020,1 20 0,0
21.07.2019 03:00:00 19,4 16,4 15,4 4 2 9 5 NNE 1020,2 15 0,0
21.07.2019 02:00:00 20,1 18,2 15,8 4 2 8 4 N 1020,2 14 0,0
21.07.2019 01:00:00 20,6 18,7 15,6 3 1 5 3 N 1020,2 12 0,0
21.07.2019 00:00:00 21,6 19,7 16,4 0 0 8 5 N 1019,8 15 0,0
20.07.2019 23:00:00 22,4 19,8 17,7 4 2 6 3 NNE 1019,6 14 0,0
20.07.2019 22:00:00 23,6 19,9 18,7 2 1 8 5 NNE 1019,5 19 0,0
20.07.2019 21:00:00 24,9 19,5 23,1 6 3 11 6 ESE 1018,9 33 0,0
20.07.2019 20:00:00 25,7 20,0 26,3 9 5 14 8 ESE 1018,6 30 0,0
20.07.2019 19:00:00 26,7 19,6 30,9 8 5 17 9 ESE 1018,5 19 0,0
20.07.2019 18:00:00 27,0 20,6 33,0 13 7 23 12 SSE 1018,5 44 0,0
20.07.2019 17:00:00 27,0 21,1 34,1 16 9 27 15 SE 1018,2 20 0,0
20.07.2019 16:00:00 26,7 21,0 33,0 21 12 29 16 SE 1018,5 20 0,0
20.07.2019 15:00:00 27,9 21,0 35,0 21 11 30 16 SE 1018,7 20 0,0
20.07.2019 14:00:00 28,1 20,4 35,1 18 10 32 18 ESE 1018,9 20 0,0
20.07.2019 13:00:00 27,9 18,9 34,7 21 11 31 17 ESE 1019,0 20 0,0
20.07.2019 12:00:00 26,9 21,2 33,4 19 10 30 16 ESE 1018,9 19 0,0
20.07.2019 11:00:00 26,8 21,6 32,0 20 11 31 17 ESE 1018,6 19 0,0
20.07.2019 10:00:00 26,6 21,4 31,1 18 10 28 15 ESE 1018,0 19 0,0
20.07.2019 09:00:00 25,7 20,3 26,3 6 3 11 6 NE 1017,7 20 0,0
20.07.2019 08:00:00 23,1 19,9 19,8 4 2 10 5 N 1017,5 13 0,0
20.07.2019 07:00:00 20,3 19,0 16,2 4 2 8 5 N 1017,1 12 0,0
20.07.2019 06:00:00 19,5 18,2 16,2 6 3 10 5 N 1017,0 9 0,0
20.07.2019 05:00:00 20,0 18,5 15,3 7 4 9 5 N 1016,8 10 0,0
20.07.2019 04:00:00 19,6 18,3 15,6 6 3 9 5 NNE 1016,6 10 0,2
20.07.2019 03:00:00 20,1 18,9 16,9 5 3 7 4 NNE 1016,5 6 0,0
20.07.2019 02:00:00 20,9 19,2 17,0 6 3 8 4 N 1016,5 12 0,0
20.07.2019 01:00:00 21,0 19,3 17,2 6 3 8 5 NNE 1016,6 11 0,0
20.07.2019 00:00:00 21,8 19,5 17,3 4 2 7 4 NNE 1016,4 12 0,0
19.07.2019 23:00:00 23,2 20,5 18,3 3 2 5 3 NNE 1016,4 14 0,0
19.07.2019 22:00:00 24,0 20,9 21,3 4 2 10 5 ESE 1016,3 16 0,0
19.07.2019 21:00:00 24,6 20,9 23,0 6 3 13 7 ESE 1015,9 20 0,0
19.07.2019 20:00:00 25,8 21,0 27,7 9 5 16 9 SE 1015,6 20 0,0
19.07.2019 19:00:00 26,5 21,3 29,1 9 5 18 10 SW 1015,7 34 0,0
19.07.2019 18:00:00 26,6 21,1 27,0 13 7 19 11 SE 1015,9 23 0,0
19.07.2019 17:00:00 26,2 21,2 27,5 14 7 22 12 ESE 1016,0 26 0,0
19.07.2019 16:00:00 27,6 20,9 36,6 16 8 22 12 SE 1015,9 39 0,0
19.07.2019 15:00:00 28,1 20,9 37,4 14 8 22 12 SE 1016,1 20 0,0
19.07.2019 14:00:00 27,4 21,0 36,1 14 8 25 14 SSE 1016,3 19 0,0
19.07.2019 13:00:00 27,7 20,5 35,0 16 9 26 14 SE 1016,3 20 0,0
19.07.2019 12:00:00 27,5 20,8 34,0 16 9 27 15 ESE 1016,1 19 0,0
19.07.2019 11:00:00 27,1 20,7 34,0 14 8 22 12 ESE 1016,1 19 0,0
19.07.2019 10:00:00 26,7 19,6 32,8 9 5 13 7 SE 1015,8 20 0,0
19.07.2019 09:00:00 25,5 18,9 25,9 5 3 12 6 WNW 1015,7 20 0,0
19.07.2019 08:00:00 22,7 18,9 18,7 8 4 11 6 NNW 1015,1 17 0,0
19.07.2019 07:00:00 19,4 17,5 16,2 5 3 9 5 N 1014,7 14 0,0
19.07.2019 06:00:00 18,5 16,5 14,9 7 4 10 5 NNE 1014,5 13 0,0
19.07.2019 05:00:00 18,8 17,1 15,1 6 3 9 5 NNE 1014,3 12 0,0
19.07.2019 04:00:00 18,9 17,2 15,1 6 3 10 5 NNE 1014,2 14 0,0
19.07.2019 03:00:00 19,5 17,6 15,1 6 3 9 5 NNE 1014,2 14 0,0
19.07.2019 02:00:00 19,7 17,3 15,3 4 2 8 5 NNE 1014,0 14 0,0
19.07.2019 01:00:00 21,0 18,8 16,4 3 1 7 4 N 1013,8 11 0,0
19.07.2019 00:00:00 22,6 19,8 17,6 2 1 6 3 NNE 1013,6 17 0,0
18.07.2019 23:00:00 23,1 19,9 17,6 0 0 7 4 N 1013,4 19 0,0
18.07.2019 22:00:00 23,6 19,3 19,2 4 2 10 5 NNE 1013,0 20 0,0
18.07.2019 21:00:00 25,0 20,5 23,4 9 5 24 13 E 1012,4 23 0,0
18.07.2019 20:00:00 26,0 20,6 26,0 16 9 33 18 E 1012,1 28 0,0
18.07.2019 19:00:00 26,9 20,3 28,8 21 12 40 21 E 1011,5 20 0,0
18.07.2019 18:00:00 28,6 17,8 32,3 19 11 37 20 E 1011,3 37 0,0
18.07.2019 17:00:00 28,4 19,1 30,5 16 8 35 19 E 1011,3 20 0,0
18.07.2019 16:00:00 28,4 19,1 32,8 20 11 35 19 ESE 1011,5 20 0,0
18.07.2019 15:00:00 27,4 21,0 33,0 22 12 35 19 ESE 1011,7 19 0,0
18.07.2019 14:00:00 27,6 17,7 35,7 18 10 27 14 SSE 1011,7 18 0,0
18.07.2019 13:00:00 27,6 20,4 36,4 16 9 29 16 S 1012,0 40 0,0
18.07.2019 12:00:00 27,2 20,5 34,6 14 8 25 13 SSW 1011,9 20 0,0
18.07.2019 11:00:00 26,1 17,2 32,4 14 8 24 13 SW 1011,9 35 0,0
18.07.2019 10:00:00 26,8 15,8 30,7 8 4 15 8 SSW 1011,8 20 0,0
18.07.2019 09:00:00 25,5 13,0 27,6 6 3 10 6 WNW 1011,7 44 0,0
18.07.2019 08:00:00 23,0 15,1 17,7 2 1 9 5 NE 1011,1 20 0,0
18.07.2019 07:00:00 18,1 14,2 13,8 5 3 8 4 N 1010,6 20 0,0
18.07.2019 06:00:00 17,4 13,7 13,7 4 2 9 5 N 1010,4 18 0,0
18.07.2019 05:00:00 16,7 12,8 14,0 8 4 10 5 NNE 1010,0 20 0,0
18.07.2019 04:00:00 17,4 13,1 14,7 8 4 10 5 NNE 1009,8 20 0,0
18.07.2019 03:00:00 17,7 13,4 14,5 6 3 10 6 NNE 1009,9 20 0,0
18.07.2019 02:00:00 18,4 12,8 14,2 4 2 8 4 NE 1010,6 20 0,0
18.07.2019 01:00:00 20,2 13,6 15,9 5 3 10 5 NNE 1010,9 20 0,0
18.07.2019 00:00:00 23,8 14,5 19,3 0 0 7 4 N 1011,4 20 0,0
17.07.2019 23:00:00 24,5 14,9 22,1 10 5 31 17 W 1011,8 54 0,0
17.07.2019 22:00:00 25,4 12,9 22,5 14 7 24 13 W 1011,5 59 0,0
17.07.2019 21:00:00 24,9 16,6 23,5 20 11 35 19 WSW 1010,9 50 0,0
17.07.2019 20:00:00 25,4 17,1 25,4 18 10 32 17 WSW 1010,7 45 0,0
17.07.2019 19:00:00 25,3 18,5 26,7 20 11 37 20 SW 1010,8 34 0,0
17.07.2019 18:00:00 26,8 18,4 30,9 25 13 37 20 SW 1011,3 47 0,0
17.07.2019 17:00:00 26,5 18,9 33,6 14 8 30 16 SW 1011,9 20 0,0
17.07.2019 16:00:00 26,8 21,1 33,3 16 9 29 15 SW 1012,3 47 0,0
17.07.2019 15:00:00 27,3 20,9 36,4 15 8 27 14 SW 1012,6 20 0,0
17.07.2019 14:00:00 28,1 20,1 36,4 14 7 22 12 SSW 1012,8 19 0,0
17.07.2019 13:00:00 27,7 19,8 36,0 11 6 22 12 ESE 1013,1 19 0,0
17.07.2019 12:00:00 27,2 19,3 32,9 11 6 19 10 S 1013,3 38 0,0
17.07.2019 11:00:00 26,2 18,1 32,1 9 5 15 8 SSW 1013,4 46 0,0
17.07.2019 10:00:00 26,8 14,5 32,4 7 4 12 6 SSW 1013,6 51 0,0
17.07.2019 09:00:00 26,3 12,4 28,5 0 0 6 3 N 1013,5 51 0,0
17.07.2019 08:00:00 22,5 13,0 17,8 4 2 10 5 N 1013,4 20 0,0
17.07.2019 07:00:00 18,2 12,6 12,2 5 3 10 5 N 1013,1 20 0,0
17.07.2019 06:00:00 15,6 11,6 12,0 4 2 9 5 NNW 1013,0 19 0,0
17.07.2019 05:00:00 17,1 11,6 12,9 2 1 11 6 NW 1012,9 20 0,0
17.07.2019 04:00:00 16,9 12,4 12,8 6 3 10 5 NW 1013,1 20 0,0
17.07.2019 03:00:00 18,2 13,3 13,8 6 4 12 6 NNW 1013,5 20 0,0
17.07.2019 02:00:00 19,6 13,5 14,3 5 3 8 4 N 1014,0 20 0,0
17.07.2019 01:00:00 20,9 13,3 16,1 4 2 14 7 N 1014,3 20 0,0
17.07.2019 00:00:00 22,7 13,2 19,8 4 2 14 8 W 1014,4 60 0,0
16.07.2019 23:00:00 22,5 15,1 20,0 5 3 22 12 W 1014,3 60 0,0
16.07.2019 22:00:00 23,0 14,3 20,3 11 6 17 9 SW 1014,1 60 0,0
16.07.2019 21:00:00 23,5 18,2 21,7 12 6 18 10 SW 1013,8 46 0,0
16.07.2019 20:00:00 25,0 18,2 27,1 15 8 24 13 SW 1013,9 48 0,0
16.07.2019 19:00:00 25,7 17,4 29,8 16 9 36 19 SW 1014,1 54 0,0
16.07.2019 18:00:00 26,6 16,8 31,3 26 14 40 21 SW 1014,2 53 0,0
16.07.2019 17:00:00 27,3 14,7 33,5 27 15 41 22 WSW 1014,8 48 0,0
16.07.2019 16:00:00 27,4 14,4 34,1 27 15 39 21 WSW 1015,2 59 0,0
16.07.2019 15:00:00 27,8 11,8 34,9 23 12 36 19 SW 1015,1 56 0,0
16.07.2019 14:00:00 28,1 12,4 36,9 18 10 29 16 SSW 1015,2 60 0,0
16.07.2019 13:00:00 27,8 12,2 35,9 21 11 28 15 WSW 1015,1 60 0,0
16.07.2019 12:00:00 27,2 12,0 34,8 14 8 24 13 SW 1015,1 60 0,0
16.07.2019 11:00:00 27,3 12,1 35,2 8 4 18 10 SSW 1014,9 60 0,0
16.07.2019 10:00:00 26,6 13,7 31,6 5 3 12 6 WSW 1014,7 20 0,0
16.07.2019 09:00:00 24,4 15,3 25,0 9 5 14 8 WNW 1014,8 49 0,0
16.07.2019 08:00:00 21,3 14,9 18,3 11 6 19 11 NW 1014,4 60 0,0
16.07.2019 07:00:00 18,5 15,4 12,9 11 6 16 9 NW 1013,7 52 0,0
16.07.2019 06:00:00 17,0 14,6 12,1 5 3 11 6 NNW 1013,4 59 0,0
16.07.2019 05:00:00 16,2 13,7 13,6 4 2 9 5 N 1013,2 58 0,0
16.07.2019 04:00:00 19,1 15,4 15,6 4 2 10 6 N 1013,2 59 0,0
16.07.2019 03:00:00 19,2 14,9 16,2 5 3 16 9 N 1013,3 60 0,0
16.07.2019 02:00:00 21,0 15,3 17,9 9 5 16 9 WNW 1013,1 60 0,0

tt = temperature
td = dewpoint
tt 5cm = temperature 5cm
ff = wind speed
fx = gusts
dd = wind direction
ppp = reduced air pressure
vv = visibility
rr = precipitation

Next stations